Nadi, Fiji

9:46 AM FJT on January 25, 2017 (GMT +1200)
Nadi International

Weather History for NFFN - November, 2012

Change the Weather History Date:

Monday, November 19, 2012

  Actual Average Record
Temperature  
Mean Temperature 82 °F -  
Max Temperature 86 °F 85 °F 89 °F (2004)
Min Temperature 77 °F 71 °F 64 °F (1996)
Cooling Degree Days 16    
Growing Degree Days 32 (Base 50)    
Moisture  
Dew Point 74 °F    
Average Humidity 81    
Maximum Humidity 94    
Minimum Humidity 61    
Precipitation  
Precipitation 0.08 in 0.20 in - ()
Sea Level Pressure  
Sea Level Pressure 29.90 in    
Wind  
Wind Speed 4 mph ()    
Max Wind Speed 16 mph    
Max Gust Speed -    
Visibility 12.0 miles    
Events Rain    
Averages and records for this station are not official NWS values.
T = Trace of Precipitation, MM = Missing Value Source: Averaged Metar Reports

Daily Weather History Graph

Daily Weather History Graph

Search for Another Location

Airport or City:

Trip Planner

Search our weather history database for the weather conditions in past years. The results will help you decide how hot, cold, wet, or windy it might be!

Date:

Astronomy

Nov. 19, 2012 Rise Set
Actual Time 6:25 AM FJST 7:25 PM FJST
Civil Twilight 6:02 AM FJST 7:48 PM FJST
Nautical Twilight 5:34 AM FJST 8:16 PM FJST
Astronomical Twilight 5:06 AM FJST 8:44 PM FJST
Moon 11:27 AM FJST (11/19) No Moon Set
Length of Visible Light 13h 46m
Length of Day
12h 59m
Waxing Crescent, 32% of the Moon is Illuminated
Nov 19
Waxing Crescent
Nov 21
First Quarter
Nov 29
Full
Dec 7
Last Quarter
Dec 13
New

Hourly Weather History & Observations

Time (FJST) Temp. Heat Index Dew Point Humidity Pressure Visibility Wind Dir Wind Speed Gust Speed Precip Events Conditions
12:00 AM 77.0 °F - 73.4 °F 89% 29.95 in 28.0 mi South 5.8 mph - N/A   Mostly Cloudy
1:00 AM 77 °F - 73 °F 83% 29.95 in 12 mi Calm Calm - -   Partly Cloudy
1:00 AM 77.0 °F - 73.4 °F 89% 29.95 in 28.0 mi Calm Calm - N/A   Mostly Cloudy
2:00 AM 77.0 °F - 73.4 °F 89% 29.92 in 28.0 mi NE 5.8 mph - N/A   Mostly Cloudy
3:00 AM 78.8 °F - 73.4 °F 83% 29.92 in 28.0 mi NNW 5.8 mph - N/A   Mostly Cloudy
4:00 AM 77 °F - 74 °F 87% 29.92 in 12 mi Calm Calm - -   Partly Cloudy
4:00 AM 77.0 °F - 73.4 °F 89% 29.92 in 28.0 mi Calm Calm - N/A   Mostly Cloudy
5:00 AM 77.0 °F - 73.4 °F 89% 29.89 in 28.0 mi SSE 5.8 mph - N/A   Mostly Cloudy
6:00 AM 77.0 °F - 75.2 °F 94% 29.89 in 28.0 mi SSE 5.8 mph - N/A   Mostly Cloudy
7:00 AM 77 °F - 72 °F 79% 29.90 in 31 mi Calm Calm - -   Partly Cloudy
7:00 AM 77.0 °F - 71.6 °F 83% 29.89 in 31.1 mi Calm Calm - N/A   Mostly Cloudy
8:00 AM 78.8 °F - 71.6 °F 78% 29.92 in 24.9 mi Calm Calm - N/A   Mostly Cloudy
9:00 AM 80.6 °F 85.4 °F 73.4 °F 79% 29.92 in 24.9 mi Calm Calm - N/A   Mostly Cloudy
10:00 AM 83 °F - 72 °F 61% 29.92 in 31 mi WNW 5.8 mph - -   Partly Cloudy
10:00 AM 82.4 °F 87.2 °F 71.6 °F 70% 29.92 in 31.1 mi WNW 5.8 mph - N/A   Mostly Cloudy
11:00 AM 84.2 °F 90.9 °F 73.4 °F 70% 29.89 in 31.1 mi West 9.2 mph - N/A   Scattered Clouds
12:00 PM 86.0 °F 93.4 °F 73.4 °F 66% 29.89 in 31.1 mi West 11.5 mph - N/A   Mostly Cloudy
1:00 PM 85 °F - 75 °F 65% 29.90 in 31 mi West 16.1 mph - -   Partly Cloudy
1:00 PM 86.0 °F 95.1 °F 75.2 °F 70% 29.89 in 31.1 mi West 16.1 mph - N/A   Mostly Cloudy
2:00 PM 86.0 °F 93.4 °F 73.4 °F 66% 29.89 in 28.0 mi West 13.8 mph - N/A   Mostly Cloudy
3:00 PM 84.2 °F 92.3 °F 75.2 °F 74% 29.86 in 28.0 mi WSW 10.4 mph - N/A   Mostly Cloudy
4:00 PM 84 °F - 74 °F 66% 29.87 in 12 mi WSW 6.9 mph - - Rain Light Rain Showers
4:00 PM 84.2 °F 92.3 °F 75.2 °F 74% 29.86 in 28.0 mi WSW 6.9 mph - N/A Rain Light Rain Showers
5:00 PM 84.2 °F 92.3 °F 75.2 °F 74% 29.86 in 24.9 mi NNE 6.9 mph - N/A Rain Light Rain Showers
6:00 PM 80.6 °F 88.1 °F 78.8 °F 94% 29.86 in 31.1 mi Calm Calm - N/A   Mostly Cloudy
7:00 PM 80 °F - 77 °F 88% 29.89 in 12 mi Calm Calm - -   Partly Cloudy
7:00 PM 80.6 °F 87.1 °F 77.0 °F 89% 29.89 in 28.0 mi Calm Calm - N/A   Mostly Cloudy
8:00 PM 78.8 °F - 77.0 °F 94% 29.89 in 28.0 mi Calm Calm - N/A   Mostly Cloudy
9:00 PM 78.8 °F - 77.0 °F 94% 29.92 in 24.9 mi Calm Calm - N/A   Mostly Cloudy
10:00 PM 79 °F - 76 °F 89% 29.94 in 12 mi Calm Calm - -   Partly Cloudy
10:00 PM 78.8 °F - 77.0 °F 94% 29.92 in 24.9 mi Calm Calm - N/A   Mostly Cloudy
11:00 PM 78.8 °F - 75.2 °F 89% 29.92 in 24.9 mi Calm Calm - N/A   Mostly Cloudy